STARLINK-2209, 47776

Orbit data source: Space-Track

STARLINK-2209, 47776 is a payload satellite owned by SpaceX/Seattle (US) in LEO that was launched on Thu, 04 Mar 2021 UTC via an FALCON 9 launch vehicle from the Air Force Eastern Test Range (AFETR). Payload-class satellites include a variety of spacecraft equipped with specific instruments for various scientific and technological missions. These include communications satellites like Starlink; space stations such as the ISS; scientific satellites like the Hubble; Earth observation satellites from companies like Planet Labs, Umbra, and HawkEye 360; GPS; miniature CubeSats for education and research; and military/defense satellites.

Loading next visibility...
Identifier
47776, 2021-017BG
Orbit
LEO
Country
Flag of USUS
Related business
Manufacturer
SpaceX/Seattle
Mission
Partially operational Commercial Communications
Bus & Motor
STARLINK, Unknown motor
Mass
260 kg wet, ~248 kg dry
Launch date (UTC)
2021-03-04 (5 years ago)
Launch vehicle
FALCON 9
Launch site
Air Force Eastern Test Range (AFETR)
Object type
Payload
Rocket body
Debris
Shape & HBR
Box + 1 Pan, 10.1 m
Radar Cross Section
13.562 m², Large (>1 m²)

Expand to show TLE details & history
Last TLE update: 2 days ago

TLE from 2 days ago
0 STARLINK-2209
1 47776U 21017BG  26171.41668980  .01170343  00000-0  13177-1 0  9990
2 47776  53.1530  71.1368 0002110  96.0981 269.4780 15.59214800  5920
Epoch: 2026-06-20T10:00Z
TLE epoch observation values (Epoch: 2026-06-20T10:00:01.998Z)
Latitude
4.38685°
Longitude
15.77406°
Altitude
390.389 km
Speed
7.678 km/s
True Right ascension
04h 57m 39s
True Declination
4° 21' 33"
Sunlit
Object was in daylight at epoch
Visualization orbit readout
Latitude
Unknown
Longitude
Unknown
Altitude
Unknown
Speed
Unknown
Apparent Right ascension
Unknown
Apparent Declination
Unknown
Sunlit
N/A
Visualization observer readout
Local Sidereal Time
21:40:09
Azimuth
Unknown
Elevation
Unknown
Doppler factor
Unknown
Orbital elements
Apogee altitude
391.617 km
Perigee altitude
388.761 km
Semi-major axis
6,768.326 km
Eccentricity
0.00021
Inclination
53.153°
RAAN
71.1368°
Arg. of periapsis
96.0981°
True anomaly
269.45382°
Mean anomaly
269.478°
Eccentric anomaly
269.46591°
Mean motion
3.89782 °/min
Orbital period
92.36 mins
BSTAR
0.013177
Loading maneuver chart data...
Computing Atmospheric mass density...

Documentation

Showing up to 5 results
|